Location: Fundy National Park
(45.6138°N, 65.0316°W)
Time: 12:17:17
(UTC-04:00)

BlueWalker 3 - Pass Details

Date: 29 November 2022
Orbit: 499 x 517 km, 53.2° (Epoch: 01 February)

Event Time Altitude Azimuth Distance (km) Brightness Sun altitude
Rises 19:18:54 0° 290° (WNW) 2,624 6.6 -27.4°
Reaches altitude 10° 19:21:22 10° 303° (WNW) 1,733 5.3 -27.8°
Enters shadow 19:22:58 19° 322° (NW) 1,261 4.3 -28.1°
